OPS 4682 DEB, 38456

Orbit data source: Space-Track

OPS 4682 DEB, 38456 is space debris in LEO originally from a launch on Sat, 03 Apr 1965 UTC launched from the Air Force Western Test Range (AFWTR). Debris objects in space refer to the collection of defunct objects orbiting the Earth. Examples of debris include non-operational satellites, rocket bodies, and fragments generated from explosions, collisions, or faulty payload assembly.

Loading next visibility...
Identifier
38456, 1965-027FM
Orbit
LEO
Country
Flag of USUS
Related business
Manufacturer
Unknown
Mission
Spacecraft
Bus & Motor
Unknown
Mass
Unknown
Launch date (UTC)
1965-04-03 (61 years ago)
Launch vehicle
Unknown
Launch site
Air Force Western Test Range (AFWTR)
Object type
Payload
Rocket body
Debris
Shape & HBR
Unknown shape, 0.1 m
Radar Cross Section
Small (<0.1 m²)

Expand to show TLE details & history
Last TLE update: 2 months ago

TLE from 2 months ago
0 OPS 4682 DEB
1 38456U 65027FM  25294.42692075  .00000040  00000-0  11163-3 0  9992
2 38456  90.2644 358.2030 0017129 280.1123  79.8065 12.97268747 58978
Epoch: 2025-10-21T10:14Z
TLE epoch observation values (Epoch: 2025-10-21T10:14:45.952Z)
Latitude
-0.00005°
Longitude
174.39649°
Altitude
1,273.388 km
Speed
7.22 km/s
True Right ascension
23h 52m 48s
True Declination
0° 00' 00"
Sunlit
Object was in full shadow at epoch
Visualization orbit readout
Latitude
Unknown
Longitude
Unknown
Altitude
Unknown
Speed
Unknown
Apparent Right ascension
Unknown
Apparent Declination
Unknown
Sunlit
N/A
Visualization observer readout
Local Sidereal Time
03:23:48
Azimuth
Unknown
Elevation
Unknown
Doppler factor
Unknown
Orbital elements
Apogee altitude
1,283.038 km
Perigee altitude
1,256.837 km
Semi-major axis
7,648.075 km
Eccentricity
0.00171
Inclination
90.2644°
RAAN
358.203°
Arg. of periapsis
280.1123°
True anomaly
79.99976°
Mean anomaly
79.8065°
Eccentric anomaly
79.90312°
Mean motion
3.245 °/min
Orbital period
110.94 mins
BSTAR
0.00011163
Loading maneuver chart data...
Computing Atmospheric mass density...
Loading historical data...
Loading historical data...
Loading historical data...
Loading historical data...
Loading historical data...
Loading historical data...
Loading historical data...

Documentation

Showing up to 5 results
|